Terminal Aerodrome Forecast
Issued by NWS

Home | Current Version | Previous Version | Graphics & Text | Print | Product List | Glossary On
Versions: 1 2 3 4 5 6 7 8 9 10 11 12 13 14 15 16 17 18
000
FTUS43 KICT 271135
TAFSLN
TAF
KSLN 271135Z 2712/2812 VRB05KT P6SM SCT250
     FM271800 14010KT P6SM SCT050 SCT120
     FM280300 14008KT P6SM VCTS SCT050CB OVC080=

USA.gov is the U.S. government's official web portal to all federal, state and local government web resources and services.